Tiempo atmosférico en la estación meteorológica de Gaucín, Málaga (545 m.)



Fecha
DESCASC
Temp. máxima en grados centígrados (hora)
DESCASC
Temp. mínima en grados centígrados (hora)
DESCASC
Temp. media en grados centígrados
DESCASC
Racha de viento máxima en m/sg (hora)
DESCASC
Velocidad máxima media en intervalos de 10 minutos(hora)
DESCASC
Precipitaciones diarias en mm
DESCASC
Precipitaciones de 00:00 a 06:00 en mm
DESCASC
Precipitaciones de 06:00 a 12:00 en mm
DESCASC
Precipitaciones de 12:00 a 18:00 en mm
DESCASC
Precipitaciones de 18:00 a 24:00 en mm
DESCASC
04-03-2021 13.2 (14:10) 8.6 (07:40) 10.9 6.67 (13:20) 2.78 (11:10) 0 0 0 0 0
03-03-2021 11.9 (12:50) 9.1 (00:20) 10.5 5.83 (20:20) 2.5 (00:10) 0.6 0 0.4 0.2 0
02-03-2021 14.7 (15:10) 9.2 (09:20) 11.9 5.28 (13:40) 3.89 (16:10) 0.2 0.2 0 0 0
01-03-2021 12.3 (17:50) 8.7 (01:20) 10.5 7.5 (08:40) 3.33 (08:30) 0.6 0.6 0 0 0
28-02-2021 11 (15:40) 8.7 (00:00) 9.8 8.06 (23:10) 3.06 (13:30) 3.2 0 1.8 0.2 1.2
27-02-2021 13.6 (15:40) 9 (00:00) 11.3 6.94 (16:30) 2.78 (13:50) 0.2 0 0.2 0 0
26-02-2021 11.3 (18:00) 9.7 (00:00) 10.5 8.89 (07:40) 3.06 (01:30) 1 0 1 0 0
25-02-2021 13 (14:20) 9.8 (00:00) 11.4 7.22 (03:10) 2.78 (03:10) 0 0 0 0 0
24-02-2021 13.5 (15:40) 9.5 (00:00) 11.5 13.33 (11:30) 4.17 (19:50) 0 0 0 0 0
23-02-2021 15.1 (13:20) 3.9 (00:00) 9.5 8.61 (22:10) 3.61 (12:50) 0 0 0 0 0
22-02-2021 12.1 (14:10) 5.2 (00:00) 8.7 9.44 (02:30) 3.33 (07:00) 0.2 0 0.2 0 0
21-02-2021 10.4 (07:00) 6.6 (00:00) 8.5 11.94 (15:50) 5.28 (12:10) 7.6 0 2 5.4 0.2
20-02-2021 16.2 (15:10) 7.1 (00:00) 11.7 5 (15:10) 2.78 (15:20) 0 0 0 0 0
19-02-2021 17.5 (15:40) 9.4 (00:00) 13.4 5.28 (15:10) 3.89 (00:50) 0 0 0 0 0
18-02-2021 18.7 (17:00) 6.8 (00:00) 12.8 5 (15:50) 4.44 (07:20) 0.2 0.2 0 0 0
17-02-2021 16.2 (15:30) 6.6 (00:00) 11.4 5 (08:50) 4.44 (08:50) 0 0 0 0 0
16-02-2021 14.8 (14:20) 8 (00:00) 11.4 6.11 (15:30) 3.61 (15:10) 0 0 0 0 0
15-02-2021 15.6 (15:20) 8.7 (00:00) 12.2 7.78 (17:00) 2.78 (08:50) 0 0 0 0 0
14-02-2021 17.9 (14:40) 7.8 (00:00) 12.8 6.67 (01:10) 4.17 (03:30) 0 0 0 0 0
13-02-2021 19.1 (13:30) 7 (00:00) 13.1 8.61 (08:50) 5 (04:40) 0 0 0 0 0
12-02-2021 15.5 (14:00) 10.1 (00:00) 12.8 11.39 (02:20) 5.83 (01:50) 0.4 0 0.4 0 0
11-02-2021 16.5 (14:00) 10.5 (00:00) 13.5 6.67 (19:30) 4.17 (20:50) 0 0 0 0 0
10-02-2021 12.2 (13:50) 10.1 (00:00) 11.2 15.83 (04:30) 6.11 (16:40) 18.2 1.8 3.8 10.8 1.8
09-02-2021 11.7 (15:40) 8.7 (00:00) 10.2 18.33 (19:10) 9.17 (16:50) 9.8 0 1 4.8 4
08-02-2021 12.4 (17:00) 8 (00:00) 10.2 13.61 (16:50) 7.5 (04:00) 21.4 8.6 12.8 0 0
07-02-2021 9.1 (12:50) 6.5 (00:00) 7.8 11.11 (23:40) 5.56 (23:40) 2 1.6 0.2 0.2 0
06-02-2021 10.1 (16:40) 7.4 (00:00) 8.8 12.22 (00:10) 4.72 (16:30) 7.2 4.8 0 2 0.4
05-02-2021 14.6 (12:40) 8.1 (00:00) 11.4 9.72 (17:50) 4.72 (17:50) 4.2 0 0 0 4.2
04-02-2021 14.5 (17:30) 7.4 (00:00) 11 5.28 (05:20) 3.33 (11:50) 0 0 0 0 0

Gráficas

Temp. máximas Temp. mínimas Temp. medias Precipitaciones Rachas de viento máximas Velocidades máximas media en intervalos de 10 minutos

Datos horarios

Fecha y hora oficial Temperatura (ºC) Velocidad del viento (km/h) Dirección del viento Racha (km/h) Dirección de racha Precipitación (mm) Presión (hPa) Tendencia (hPa) Humedad (%)
2021-03-05 23:00:00 9.2 4 Sudoeste 14 Oeste 2.4 -- -- 93
2021-03-05 22:00:00 9.4 4 Oeste 9 Sudoeste 0.8 -- -- 92
2021-03-05 21:00:00 9.5 2 Este 7 Este 1.4 -- -- 89
2021-03-05 20:00:00 9.8 2 Nordeste 5 Sudoeste 0.2 -- -- 91
2021-03-05 19:00:00 10.3 4 Sur 5 Sur 0 -- -- 90
2021-03-05 18:00:00 10.8 0 Calma 7 Sudeste 0 -- -- 92
2021-03-05 17:00:00 11.1 2 Norte 9 Sudoeste 0 -- -- 95
2021-03-05 16:00:00 10.1 5 Sudoeste 22 Este 3.6 -- -- 97
2021-03-05 15:00:00 10 4 Sudoeste 23 Sudoeste 8 -- -- 96
2021-03-05 14:00:00 9.9 0 Calma 14 Sudoeste 8.4 -- -- 95
2021-03-05 13:00:00 9.9 3 Sudoeste 11 Sur 3.8 -- -- 95
2021-03-05 12:00:00 9.5 5 Sudeste 15 Sudoeste 3 -- -- 94
2021-03-05 11:00:00 9.3 7 Oeste 17 Oeste 1.2 -- -- 94
2021-03-05 10:00:00 9.1 9 Oeste 18 Este 0.6 -- -- 91
2021-03-05 09:00:00 9.4 6 Sur 25 Este 0 -- -- 89
2021-03-05 08:00:00 9.7 8 Oeste 21 Sudoeste 0 -- -- 87
2021-03-05 07:00:00 9.5 5 Sudoeste 19 Sudeste 0 -- -- 89
2021-03-05 06:00:00 9.6 7 Sur 21 Sudeste 0 -- -- 89
2021-03-05 05:00:00 9.6 8 Sudoeste 21 Sur 0 -- -- 89
2021-03-05 04:00:00 9.7 6 Sur 22 Sur 0 -- -- 87
2021-03-05 03:00:00 10 6 Sur 19 Sudeste 0 -- -- 88
2021-03-05 02:00:00 10 4 Sudoeste 26 Sudeste 0 -- -- 86
2021-03-05 01:00:00 10 6 Sur 20 Sur 0 -- -- 84
2021-03-05 00:00:00 10 3 Oeste 18 Sudoeste 0 -- -- 85
2021-03-04 23:00:00 9.9 6 Oeste 13 Nordeste 0 -- -- 83
2021-03-04 22:00:00 9.6 3 Sudoeste 15 Este 0 -- -- 85
2021-03-04 21:00:00 9.6 3 Sur 6 Oeste 0 -- -- 86
2021-03-04 20:00:00 10 3 Sur 14 Nordeste 0 -- -- 84
2021-03-04 19:00:00 10.7 0 Calma 8 Sudoeste 0 -- -- 82
2021-03-04 18:00:00 11.3 4 Sudoeste 12 Sudoeste 0 -- -- 81
2021-03-04 17:00:00 11.9 5 Sudoeste 15 Sur 0 -- -- 80
2021-03-04 16:00:00 12.5 6 Sudoeste 16 Sudeste 0 -- -- 77
2021-03-04 15:00:00 12 5 Sudoeste 20 Sudoeste 0 -- -- 75
2021-03-04 14:00:00 12.6 6 Sur 24 Sudoeste 0 -- -- 74
2021-03-04 13:00:00 12.8 7 Oeste 23 Sur 0 -- -- 75
2021-03-04 12:00:00 11.6 6 Sur 23 Sudeste 0 -- -- 77
2021-03-04 11:00:00 10.5 5 Sur 16 Sudeste 0 -- -- 82
2021-03-04 10:00:00 10 4 Sudoeste 14 Sur 0 -- -- 82
2021-03-04 09:00:00 9.5 4 Sur 12 Sudoeste 0 -- -- 83
2021-03-04 08:00:00 8.7 3 Sudoeste 15 Nordeste 0 -- -- 82
2021-03-04 07:00:00 8.9 5 Sudoeste 16 Sudeste 0 -- -- 76
2021-03-04 06:00:00 9 3 Sudoeste 19 Sudeste 0 -- -- 79
2021-03-04 05:00:00 9.2 5 Oeste 16 Sudoeste 0 -- -- 78
2021-03-04 04:00:00 9.6 5 Sudoeste 20 Sur 0 -- -- 80
2021-03-04 03:00:00 9.7 5 Sudoeste 15 Sudoeste 0 -- -- 82
2021-03-04 02:00:00 9.9 3 Sudoeste 16 Sur 0 -- -- 80
2021-03-04 01:00:00 10.2 3 Sudeste 10 Sudeste 0 -- -- 79
2021-03-04 00:00:00 10.2 3 Sudeste 16 Este 0 -- -- 80
2021-03-03 23:00:00 10.2 4 Oeste 14 Sudoeste 0 -- -- 81
2021-03-03 22:00:00 10.2 5 Sur 12 Sur 0 -- -- 82
2021-03-03 21:00:00 10.3 5 Sur 21 Sudeste 0 -- -- 82
2021-03-03 20:00:00 10.3 6 Sudeste 15 Sudeste 0 -- -- 86
2021-03-03 19:00:00 10.3 3 Sudoeste 16 Sudeste 0 -- -- 91
2021-03-03 18:00:00 10.6 5 Sudoeste 10 Sudoeste 0 -- -- 93
2021-03-03 17:00:00 11.1 3 Sudoeste 12 Sudoeste 0 -- -- 92
2021-03-03 16:00:00 11.1 6 Sudoeste 11 Sudoeste 0 -- -- 94
2021-03-03 15:00:00 11.2 4 Sudoeste 16 Sudoeste 0.2 -- -- 94
2021-03-03 14:00:00 11.5 9 Sudoeste 18 Sur 0 -- -- 94
2021-03-03 13:00:00 11.7 7 Sudoeste 12 Sur 0 -- -- 94
2021-03-03 12:00:00 11 8 Sudoeste 16 Sudoeste 0.2 -- -- 95
2021-03-03 11:00:00 10.8 4 Sudoeste 9 Sudoeste 0.2 -- -- 95
2021-03-03 10:00:00 10.7 0 Calma 10 Sur 0 -- -- 94
2021-03-03 09:00:00 10.5 3 Sudoeste 10 Oeste 0 -- -- 92
2021-03-03 08:00:00 10.3 2 Sudoeste 8 Sudoeste 0 -- -- 91
2021-03-03 07:00:00 10.2 0 Calma 9 Oeste 0 -- -- 89
2021-03-03 06:00:00 10.4 3 Sudoeste 10 Sur 0 -- -- 87
2021-03-03 05:00:00 10.1 2 Sudeste 6 Sur 0 -- -- 86
2021-03-03 04:00:00 9.4 0 Calma 10 Sudeste 0 -- -- 91
2021-03-03 03:00:00 9.6 3 Sur 6 Sudoeste 0 -- -- 92
2021-03-03 02:00:00 9.3 4 Sudoeste 8 Sudoeste 0 -- -- 95
2021-03-03 01:00:00 9.5 3 Sur 15 Norte 0 -- -- 95
2021-03-03 00:00:00 9.5 8 Nordeste 13 Norte 0 -- -- 94
2021-03-02 23:00:00 9.9 2 Sudoeste 5 Sur 0 -- -- 94
2021-03-02 22:00:00 10 3 Nordeste 5 Nordeste 0 -- -- 92
2021-03-02 21:00:00 10.2 0 Calma 3 Sur 0 -- -- 91
2021-03-02 20:00:00 10.5 0 Calma 8 Sudoeste 0 -- -- 90
2021-03-02 19:00:00 11.4 4 Sudoeste 11 Sudoeste 0 -- -- 89
2021-03-02 18:00:00 12.1 8 Sudoeste 17 Sudoeste 0 -- -- 87
2021-03-02 17:00:00 13.1 10 Sudoeste 19 Sudoeste 0 -- -- 82
2021-03-02 16:00:00 13.4 10 Sudoeste 18 Sudoeste 0 -- -- 81
2021-03-02 15:00:00 14 9 Sudoeste 16 Sudoeste 0 -- -- 81
2021-03-02 14:00:00 13.7 10 Sudoeste 19 Sudoeste 0 -- -- 82
2021-03-02 13:00:00 13.3 9 Sudoeste 17 Sudoeste 0 -- -- 78
2021-03-02 12:00:00 14.3 10 Sudoeste 17 Sudoeste 0 -- -- 75
2021-03-02 11:00:00 12.9 5 Sudoeste 11 Sudoeste 0 -- -- 77
2021-03-02 10:00:00 9.7 6 Nordeste 9 Nordeste 0 -- -- 88
2021-03-02 09:00:00 9.6 2 Norte 6 Norte 0 -- -- 87
2021-03-02 08:00:00 9.5 0 Calma 4 Este 0 -- -- 89
2021-03-02 07:00:00 9.7 0 Calma 6 Nordeste 0 -- -- 86
2021-03-02 06:00:00 9.6 2 Sur 5 Sudeste 0 -- -- 87
2021-03-02 05:00:00 9.5 0 Calma 8 Oeste 0 -- -- 85
2021-03-02 04:00:00 10 3 Oeste 15 Sudeste 0 -- -- 85
2021-03-02 03:00:00 10 6 Sudoeste 13 Sudeste 0 -- -- 86
2021-03-02 02:00:00 10.2 3 Este 11 Sudeste 0.2 -- -- 87
2021-03-02 01:00:00 10.6 5 Sur 15 Sudeste 0 -- -- 84
2021-03-02 00:00:00 10.7 3 Sur 12 Nordeste 0 -- -- 81
2021-03-01 23:00:00 10.2 2 Sudeste 11 Sur 0 -- -- 85
2021-03-01 22:00:00 10.9 4 Sur 10 Sur 0 -- -- 77
2021-03-01 21:00:00 10.7 0 Calma 7 Sudoeste 0 -- -- 75
2021-03-01 20:00:00 11 3 Oeste 10 Sudeste 0 -- -- 74
2021-03-01 19:00:00 11.9 3 Sudeste 15 Sudeste 0 -- -- 70
2021-03-01 18:00:00 12.3 5 Sudoeste 18 Sur 0 -- -- 69
2021-03-01 17:00:00 12 4 Sudoeste 13 Sudoeste 0 -- -- 73
2021-03-01 16:00:00 11.7 5 Norte 19 Este 0 -- -- 75
2021-03-01 15:00:00 11.6 5 Sudeste 19 Sudeste 0 -- -- 76
2021-03-01 14:00:00 12 5 Sur 14 Oeste 0 -- -- 75
2021-03-01 13:00:00 10.9 4 Sur 16 Sur 0 -- -- 82
2021-03-01 12:00:00 10.6 6 Sur 17 Sudeste 0 -- -- 83
2021-03-01 11:00:00 10.6 4 Sur 18 Sudeste 0 -- -- 84
2021-03-01 10:00:00 10.5 4 Sudeste 21 Sudeste 0 -- -- 83
2021-03-01 09:00:00 10.2 6 Sudoeste 27 Sudeste 0 -- -- 83
2021-03-01 08:00:00 9.9 8 Sur 16 Sudeste 0 -- -- 79
2021-03-01 07:00:00 9.9 4 Sudoeste 18 Este 0 -- -- 80
2021-03-01 06:00:00 9.2 4 Sudoeste 16 Nordeste 0 -- -- 83
2021-03-01 05:00:00 9.1 4 Oeste 17 Este 0 -- -- 84
2021-03-01 04:00:00 8.8 5 Oeste 15 Oeste 0 -- -- 85
2021-03-01 03:00:00 8.8 6 Sudoeste 15 Sudoeste 0.2 -- -- 89
2021-03-01 02:00:00 8.9 6 Sur 22 Sur 0 -- -- 89
2021-03-01 01:00:00 8.9 6 Sur 17 Sur 0.4 -- -- 91
2021-03-01 00:00:00 9.2 6 Sudeste 29 Sudoeste 0.6 -- -- 92
2021-02-28 23:00:00 9.4 9 Sudoeste 20 Sur 0.4 -- -- 94
2021-02-28 22:00:00 9.8 8 Sudoeste 20 Sudoeste 0.2 -- -- 90
2021-02-28 21:00:00 10.2 5 Sudoeste 23 Este 0 -- -- 83
2021-02-28 20:00:00 10.2 7 Sur 21 Sur 0 -- -- 81
2021-02-28 19:00:00 10.3 7 Sur 25 Sur 0 -- -- 81
2021-02-28 18:00:00 10.5 6 Sudoeste 22 Sudeste 0 -- -- 82
2021-02-28 17:00:00 10.9 8 Sur 26 Sudeste 0 -- -- 79
2021-02-28 16:00:00 10.8 5 Sudoeste 25 Sudeste 0 -- -- 83
2021-02-28 15:00:00 10 6 Sudoeste 23 Sur 0 -- -- 86
2021-02-28 14:00:00 9.2 7 Sudoeste 27 Sur 0.2 -- -- 90
2021-02-28 13:00:00 9 8 Sur 23 Sudeste 0 -- -- 90
2021-02-28 12:00:00 8.7 9 Sudeste 24 Sudeste 0.6 -- -- 91
2021-02-28 11:00:00 8.9 8 Sudeste 26 Sur 0.4 -- -- 93
2021-02-28 10:00:00 9 9 Sudeste 24 Este 0.6 -- -- 92
2021-02-28 09:00:00 8.9 6 Sudoeste 19 Sur 0.2 -- -- 91
2021-02-28 08:00:00 9 5 Sur 15 Sudoeste 0 -- -- 88
2021-02-28 07:00:00 9.4 6 Sudoeste 22 Norte 0 -- -- 82
2021-02-28 06:00:00 9.5 8 Oeste 15 Oeste 0 -- -- 80
2021-02-28 05:00:00 9 5 Oeste 15 Nordeste 0 -- -- 79
2021-02-28 04:00:00 9.4 3 Sudoeste 13 Sudeste 0 -- -- 81
2021-02-28 03:00:00 9.5 3 Sudoeste 13 Sur 0 -- -- 80
2021-02-28 02:00:00 9.6 5 Sur 20 Sur 0 -- -- 77
2021-02-28 01:00:00 9.6 7 Sudeste 23 Este 0 -- -- 78
2021-02-28 00:00:00 9.5 3 Sudoeste 14 Norte 0 -- -- 81
2021-02-27 23:00:00 9.5 4 Norte 20 Este 0 -- -- 80
2021-02-27 22:00:00 9.5 7 Oeste 16 Noroeste 0 -- -- 82
2021-02-27 21:00:00 9.4 6 Oeste 17 Sudoeste 0 -- -- 82
2021-02-27 20:00:00 9.6 4 Sudoeste 14 Nordeste 0 -- -- 82
2021-02-27 19:00:00 10.6 3 Sudoeste 19 Noroeste 0 -- -- 76
2021-02-27 18:00:00 11.6 6 Norte 17 Norte 0 -- -- 73
2021-02-27 17:00:00 11.7 7 Norte 25 Nordeste 0 -- -- 72
2021-02-27 16:00:00 12.9 5 Sudeste 24 Sudeste 0 -- -- 70
2021-02-27 15:00:00 13.3 7 Sudoeste 22 Sudoeste 0 -- -- 71
2021-02-27 14:00:00 11.3 8 Sudoeste 23 Oeste 0 -- -- 78
2021-02-27 13:00:00 11.2 6 Sudoeste 16 Sudoeste 0 -- -- 77
2021-02-27 12:00:00 11.4 4 Oeste 16 Sudoeste 0 -- -- 76
2021-02-27 11:00:00 10.5 5 Noroeste 19 Este 0.2 -- -- 78
2021-02-27 10:00:00 9.8 4 Nordeste 16 Norte 0 -- -- 78
2021-02-27 09:00:00 9.2 3 Oeste 16 Nordeste 0 -- -- 83
2021-02-27 08:00:00 9.2 4 Norte 10 Nordeste 0 -- -- 83
2021-02-27 07:00:00 9.3 2 Noroeste 8 Nordeste 0 -- -- 84
2021-02-27 06:00:00 9.2 4 Oeste 14 Sudeste 0 -- -- 84
2021-02-27 05:00:00 9 5 Sudoeste 13 Sudeste 0 -- -- 87
2021-02-27 04:00:00 9.5 3 Sudoeste 14 Este 0 -- -- 87
2021-02-27 03:00:00 9.5 3 Sudoeste 15 Sudoeste 0 -- -- 86
2021-02-27 02:00:00 9.6 3 Sudoeste 13 Sudeste 0 -- -- 87
2021-02-27 01:00:00 10 3 Oeste 14 Sudoeste 0 -- -- 83
2021-02-27 00:00:00 10 4 Oeste 19 Oeste 0 -- -- 81
2021-02-26 23:00:00 9.8 5 Oeste 17 Este 0 -- -- 82
2021-02-26 22:00:00 10 6 Oeste 17 Sudoeste 0 -- -- 82
2021-02-26 21:00:00 10.2 2 Nordeste 18 Este 0 -- -- 79
2021-02-26 20:00:00 10 3 Nordeste 22 Norte 0 -- -- 80
2021-02-26 19:00:00 10.3 4 Noroeste 21 Noroeste 0 -- -- 79
2021-02-26 18:00:00 11.3 6 Oeste 21 Sudeste 0 -- -- 79
2021-02-26 17:00:00 11 6 Sudoeste 21 Este 0 -- -- 81
2021-02-26 16:00:00 10.7 6 Sur 15 Sur 0 -- -- 83
2021-02-26 15:00:00 10.9 4 Sudoeste 18 Sudoeste 0 -- -- 84
2021-02-26 14:00:00 10.5 7 Sur 21 Sudeste 0 -- -- 89
2021-02-26 13:00:00 10.2 7 Sur 26 Sudoeste 0 -- -- 90
2021-02-26 12:00:00 9.9 9 Sur 24 Sudeste 0 -- -- 91
2021-02-26 11:00:00 9.9 8 Sudeste 29 Este 0.2 -- -- 93
2021-02-26 10:00:00 10 6 Sudoeste 23 Sudeste 0.4 -- -- 92
2021-02-26 09:00:00 9.9 7 Sur 23 Este 0.4 -- -- 91
2021-02-26 08:00:00 10.4 5 Sudoeste 32 Sur 0 -- -- 84
2021-02-26 07:00:00 10.4 6 Sur 19 Este 0 -- -- 83
2021-02-26 06:00:00 10.5 5 Sudoeste 18 Sudeste 0 -- -- 84
2021-02-26 05:00:00 10.5 5 Sur 21 Sudoeste 0 -- -- 83
2021-02-26 04:00:00 10.5 7 Oeste 20 Oeste 0 -- -- 82
2021-02-26 03:00:00 10.8 5 Oeste 19 Sudoeste 0 -- -- 80
2021-02-26 02:00:00 10.8 9 Sur 26 Sudoeste 0 -- -- 76
2021-02-26 01:00:00 10.7 9 Sur 26 Sudeste 0 -- -- 81
2021-02-26 00:00:00 10.9 8 Sur 23 Sudeste 0 -- -- 78
2021-02-25 23:00:00 10.6 7 Sur 22 Sudeste 0 -- -- 79
2021-02-25 22:00:00 10.6 6 Sudoeste 23 Este 0 -- -- 78
2021-02-25 21:00:00 10.1 8 Oeste 17 Sudeste 0 -- -- 82
2021-02-25 20:00:00 10.2 4 Oeste 11 Oeste 0 -- -- 83
2021-02-25 19:00:00 10.9 4 Sudoeste 12 Noroeste 0 -- -- 83
2021-02-25 18:00:00 11.6 6 Sudoeste 12 Sur 0 -- -- 83
2021-02-25 17:00:00 12.3 5 Sudoeste 14 Norte 0 -- -- 82
2021-02-25 16:00:00 12.2 4 Oeste 13 Norte 0 -- -- 84
2021-02-25 15:00:00 12.6 4 Oeste 20 Norte 0 -- -- 81
2021-02-25 14:00:00 12.5 6 Sudoeste 18 Sudeste 0 -- -- 83
2021-02-25 13:00:00 11.8 9 Sur 19 Sur 0 -- -- 85
2021-02-25 12:00:00 11.7 6 Sur 13 Sur 0 -- -- 85
2021-02-25 11:00:00 11.4 4 Oeste 14 Sur 0 -- -- 85
2021-02-25 10:00:00 10.9 7 Oeste 17 Oeste 0 -- -- 90
2021-02-25 09:00:00 10 2 Sudoeste 14 Sudeste 0 -- -- 90
2021-02-25 08:00:00 9.8 5 Sudoeste 15 Sudoeste 0 -- -- 89
2021-02-25 07:00:00 10 5 Oeste 14 Oeste 0 -- -- 86
2021-02-25 06:00:00 10.1 4 Oeste 14 Sur 0 -- -- 86
2021-02-25 05:00:00 10 8 Oeste 18 Nordeste 0 -- -- 86
2021-02-25 04:00:00 10 8 Oeste 26 Noroeste 0 -- -- 84
2021-02-25 03:00:00 9.9 8 Sudoeste 20 Sudoeste 0 -- -- 81
2021-02-25 02:00:00 10.1 4 Sudoeste 20 Sudeste 0 -- -- 82
2021-02-25 01:00:00 10.3 5 Sur 22 Sudeste 0 -- -- 79
2021-02-25 00:00:00 10.1 5 Sur 16 Sur 0 -- -- 79
2021-02-24 23:00:00 10.2 5 Sur 18 Sudeste 0 -- -- 79
2021-02-24 22:00:00 10.2 4 Sur 24 Sudeste 0 -- -- 81
2021-02-24 21:00:00 10.3 11 Sur 30 Sudeste 0 -- -- 76
2021-02-24 20:00:00 10.7 14 Sur 35 Sur 0 -- -- 71
2021-02-24 19:00:00 11.1 10 Sudoeste 31 Sur 0 -- -- 72
2021-02-24 18:00:00 12.5 10 Sudeste 38 Sudeste 0 -- -- 71
2021-02-24 17:00:00 13.4 13 Sur 40 Sur 0 -- -- 73
2021-02-24 16:00:00 13.2 12 Sur 35 Sur 0 -- -- 73
2021-02-24 15:00:00 12.5 10 Sudoeste 25 Sudeste 0 -- -- 78
2021-02-24 14:00:00 12 8 Sudeste 31 Sudeste 0 -- -- 77
2021-02-24 13:00:00 11.5 9 Sur 37 Sudoeste 0 -- -- 79
2021-02-24 12:00:00 11.2 9 Sudoeste 48 Sudeste 0 -- -- 81
2021-02-24 11:00:00 10.8 14 Sur 36 Sudeste 0 -- -- 83
2021-02-24 10:00:00 10.8 10 Sur 39 Sudeste 0 -- -- 81
2021-02-24 09:00:00 10.4 12 Sur 40 Sudeste 0 -- -- 81
2021-02-24 08:00:00 10.4 7 Sudoeste 26 Este 0 -- -- 79
2021-02-24 07:00:00 10.4 6 Sudoeste 33 Sudeste 0 -- -- 82
2021-02-24 06:00:00 10.5 8 Sudoeste 32 Sur 0 -- -- 81
2021-02-24 05:00:00 10.6 7 Sudoeste 24 Este 0 -- -- 79
2021-02-24 04:00:00 10.6 11 Sur 31 Sudeste 0 -- -- 80
2021-02-24 03:00:00 10.3 10 Sur 40 Sudeste 0 -- -- 78
2021-02-24 02:00:00 10 8 Sudoeste 38 Sudeste 0 -- -- 75
2021-02-24 01:00:00 9.7 8 Sudoeste 32 Este 0 -- -- 75
2021-02-24 00:00:00 9.5 9 Sur 30 Sudeste 0 -- -- 77
2021-02-23 23:00:00 9.4 9 Sur 31 Este 0 -- -- 69
2021-02-23 22:00:00 9.4 6 Norte 28 Sur 0 -- -- 70
2021-02-23 21:00:00 9.3 6 Sudeste 22 Este 0 -- -- 70
2021-02-23 20:00:00 9.6 6 Sudoeste 23 Sudeste 0 -- -- 72
2021-02-23 19:00:00 10.3 5 Sudeste 23 Sur 0 -- -- 64
2021-02-23 18:00:00 12.5 7 Sudeste 24 Sur 0 -- -- 57
2021-02-23 17:00:00 13.2 9 Sur 29 Sudeste 0 -- -- 55
2021-02-23 16:00:00 13.8 7 Sudoeste 23 Este 0 -- -- 56
2021-02-23 15:00:00 13 8 Sur 29 Sur 0 -- -- 54
2021-02-23 14:00:00 13.5 8 Sudoeste 30 Sur 0 -- -- 54
2021-02-23 13:00:00 14.6 10 Sudoeste 31 Oeste 0 -- -- 49
2021-02-23 12:00:00 13.9 6 Sudoeste 18 Sur 0 -- -- 50
2021-02-23 11:00:00 12.4 6 Sur 16 Sudeste 0 -- -- 51
2021-02-23 10:00:00 9.6 3 Sudoeste 9 Sudeste 0 -- -- 60
2021-02-23 09:00:00 4.8 7 Nordeste 17 Nordeste 0 -- -- 84
2021-02-23 08:00:00 4.8 11 Nordeste 15 Norte 0 -- -- 87
2021-02-23 07:00:00 4.8 11 Nordeste 14 Norte 0 -- -- 90
2021-02-23 06:00:00 4.2 8 Nordeste 16 Norte 0 -- -- 93
2021-02-23 05:00:00 4.1 8 Nordeste 15 Norte 0 -- -- 93
2021-02-23 04:00:00 4.1 5 Norte 15 Norte 0 -- -- 93
2021-02-23 03:00:00 4.5 6 Norte 16 Norte 0 -- -- 90
2021-02-23 02:00:00 4.9 8 Nordeste 14 Norte 0 -- -- 89
2021-02-23 01:00:00 5.2 11 Norte 18 Norte 0 -- -- 88
2021-02-23 00:00:00 6.4 7 Norte 13 Norte 0 -- -- 84
2021-02-22 23:00:00 7.2 6 Norte 10 Noroeste 0 -- -- 85
2021-02-22 22:00:00 7.5 4 Nordeste 12 Norte 0 -- -- 84
2021-02-22 21:00:00 7.9 4 Noroeste 18 Norte 0 -- -- 81
2021-02-22 20:00:00 8.7 6 Norte 14 Nordeste 0 -- -- 76
2021-02-22 19:00:00 9.9 4 Noroeste 19 Norte 0 -- -- 67
2021-02-22 18:00:00 11.4 6 Noroeste 23 Oeste 0 -- -- 62
2021-02-22 17:00:00 12.1 6 Norte 22 Norte 0 -- -- 59
2021-02-22 16:00:00 11.9 7 Noroeste 24 Noroeste 0 -- -- 59
2021-02-22 15:00:00 12.1 9 Noroeste 30 Nordeste 0 -- -- 58
2021-02-22 14:00:00 11.9 9 Noroeste 26 Norte 0 -- -- 58
2021-02-22 13:00:00 11.6 6 Norte 26 Noroeste 0 -- -- 59
2021-02-22 12:00:00 10.5 9 Norte 21 Oeste 0.2 -- -- 60
2021-02-22 11:00:00 9.6 5 Oeste 15 Nordeste 0 -- -- 64
2021-02-22 10:00:00 7.2 5 Nordeste 20 Norte 0 -- -- 69
2021-02-22 09:00:00 5.2 9 Nordeste 19 Norte 0 -- -- 76
2021-02-22 08:00:00 5.6 9 Norte 26 Norte 0 -- -- 71
2021-02-22 07:00:00 5.8 12 Norte 29 Norte 0 -- -- 76
2021-02-22 06:00:00 5.5 7 Norte 22 Nordeste 0 -- -- 86
2021-02-22 05:00:00 5.5 5 Norte 17 Noroeste 0 -- -- 88
2021-02-22 04:00:00 5.7 5 Sur 22 Norte 0 -- -- 89
2021-02-22 03:00:00 6.1 6 Noroeste 34 Norte 0 -- -- 88
2021-02-22 02:00:00 6.6 7 Noroeste 31 Norte 0 -- -- 85
2021-02-22 01:00:00 7 8 Noroeste 28 Norte 0 -- -- 87
2021-02-22 00:00:00 6.7 9 Norte 33 Norte 0 -- -- 86
2021-02-21 23:00:00 6.9 10 Noroeste 35 Nordeste 0 -- -- 81
2021-02-21 22:00:00 7.5 9 Oeste 28 Noroeste 0 -- -- 85
2021-02-21 21:00:00 7.6 7 Noroeste 20 Noroeste 0.2 -- -- 87
2021-02-21 20:00:00 7.4 7 Noroeste 28 Norte 0 -- -- 87
2021-02-21 19:00:00 7.5 5 Oeste 32 Norte 0 -- -- 85
2021-02-21 18:00:00 7.4 8 Oeste 33 Norte 0 -- -- 87
2021-02-21 17:00:00 7.5 9 Oeste 26 Oeste 0 -- -- 88
2021-02-21 16:00:00 7.7 9 Noroeste 43 Noroeste 0.2 -- -- 88
2021-02-21 15:00:00 8.1 11 Noroeste 27 Noroeste 0.2 -- -- 94
2021-02-21 14:00:00 8.1 3 Sudoeste 25 Sudoeste 0.8 -- -- 96
2021-02-21 13:00:00 7.8 9 Sudoeste 42 Sur 4.2 -- -- 96
2021-02-21 12:00:00 8.8 17 Sudoeste 40 Sudoeste 0.8 -- -- 94
2021-02-21 11:00:00 9.5 14 Sudoeste 24 Sudoeste 0.4 -- -- 95
2021-02-21 10:00:00 9.8 13 Sudoeste 24 Sudoeste 0.8 -- -- 90
2021-02-21 09:00:00 10.1 5 Sur 13 Sur 0 -- -- 84
2021-02-21 08:00:00 9.9 8 Sudoeste 18 Sur 0 -- -- 83
2021-02-21 07:00:00 10.4 3 Oeste 10 Este 0 -- -- 79
2021-02-21 06:00:00 10 5 Nordeste 7 Nordeste 0 -- -- 82
2021-02-21 05:00:00 9.7 3 Nordeste 8 Nordeste 0 -- -- 83
2021-02-21 04:00:00 9.3 4 Nordeste 9 Nordeste 0 -- -- 85
2021-02-21 03:00:00 9.9 0 Calma 8 Sudoeste 0 -- -- 81
2021-02-21 02:00:00 9.7 4 Nordeste 13 Nordeste 0 -- -- 82
2021-02-21 01:00:00 9.6 2 Nordeste 10 Nordeste 0 -- -- 85
2021-02-21 00:00:00 9.5 2 Nordeste 13 Este 0 -- -- 85
2021-02-20 23:00:00 9.5 4 Sur 13 Nordeste 0 -- -- 83
2021-02-20 22:00:00 9.8 4 Nordeste 11 Nordeste 0 -- -- 83
2021-02-20 21:00:00 9.4 2 Nordeste 10 Este 0 -- -- 90
2021-02-20 20:00:00 9.7 3 Este 8 Nordeste 0 -- -- 89
2021-02-20 19:00:00 11 0 Calma 13 Sudoeste 0 -- -- 87
2021-02-20 18:00:00 12 10 Sudoeste 14 Sudoeste 0 -- -- 83
2021-02-20 17:00:00 13.8 7 Sudoeste 12 Sudoeste 0 -- -- 77
2021-02-20 16:00:00 15.6 4 Sur 18 Sudoeste 0 -- -- 68
2021-02-20 15:00:00 15.9 8 Sudoeste 17 Sudoeste 0 -- -- 71
2021-02-20 14:00:00 14.9 6 Sudoeste 17 Sur 0 -- -- 71
2021-02-20 13:00:00 14.1 5 Sudoeste 14 Sudoeste 0 -- -- 73
2021-02-20 12:00:00 14.1 5 Sudoeste 12 Sudoeste 0 -- -- 72
2021-02-20 11:00:00 12.1 4 Sudoeste 8 Sudoeste 0 -- -- 79
2021-02-20 10:00:00 10.2 3 Este 9 Sudeste 0 -- -- 83
2021-02-20 09:00:00 8.3 0 Calma 12 Nordeste 0 -- -- 92
2021-02-20 08:00:00 7.6 7 Nordeste 14 Este 0 -- -- 92
2021-02-20 07:00:00 7.7 6 Nordeste 12 Nordeste 0 -- -- 90
2021-02-20 06:00:00 7.2 6 Nordeste 14 Nordeste 0 -- -- 92
2021-02-20 05:00:00 8.1 0 Calma 12 Nordeste 0 -- -- 80
2021-02-20 04:00:00 7.5 7 Nordeste 13 Norte 0 -- -- 89
2021-02-20 03:00:00 8.2 0 Calma 5 Este 0 -- -- 84
2021-02-20 02:00:00 9.6 2 Sur 5 Este 0 -- -- 74
2021-02-20 01:00:00 9.7 0 Calma 9 Sur 0 -- -- 67
2021-02-20 00:00:00 10.6 3 Nordeste 7 Nordeste 0 -- -- 63
2021-02-19 23:00:00 9.7 3 Nordeste 5 Nordeste 0 -- -- 81
2021-02-19 22:00:00 10.6 0 Calma 4 Noroeste 0 -- -- 71
2021-02-19 21:00:00 11.7 4 Este 10 Nordeste 0 -- -- 74
2021-02-19 20:00:00 10.7 8 Nordeste 12 Nordeste 0 -- -- 91
2021-02-19 19:00:00 12.3 0 Calma 6 Sudoeste 0 -- -- 84
2021-02-19 18:00:00 15.7 4 Oeste 13 Sudoeste 0 -- -- 75
2021-02-19 17:00:00 16.9 8 Sudoeste 16 Sudoeste 0 -- -- 68
2021-02-19 16:00:00 17.2 12 Sudoeste 19 Sudoeste 0 -- -- 64
2021-02-19 15:00:00 17 12 Sudoeste 18 Sudoeste 0 -- -- 67
2021-02-19 14:00:00 16.2 8 Sudoeste 17 Sudoeste 0 -- -- 73
2021-02-19 13:00:00 14.6 5 Sudoeste 12 Sudoeste 0 -- -- 74
2021-02-19 12:00:00 13.7 6 Sudoeste 11 Sudoeste 0 -- -- 79
2021-02-19 11:00:00 13 5 Sudoeste 8 Sudoeste 0 -- -- 77
2021-02-19 10:00:00 11.2 0 Calma 6 Este 0 -- -- 74
2021-02-19 09:00:00 9.9 0 Calma 10 Este 0 -- -- 66
2021-02-19 08:00:00 10.4 5 Nordeste 9 Nordeste 0 -- -- 64
2021-02-19 07:00:00 10.6 6 Nordeste 7 Nordeste 0 -- -- 66
2021-02-19 06:00:00 10.2 5 Este 9 Nordeste 0 -- -- 69
2021-02-19 05:00:00 11.4 6 Nordeste 10 Nordeste 0 -- -- 64
2021-02-19 04:00:00 10.5 4 Nordeste 12 Nordeste 0 -- -- 72
2021-02-19 03:00:00 10.1 10 Nordeste 14 Norte 0 -- -- 75
2021-02-19 02:00:00 9.6 5 Nordeste 14 Nordeste 0 -- -- 81
2021-02-19 01:00:00 10.1 12 Nordeste 15 Nordeste 0 -- -- 80
2021-02-19 00:00:00 10.5 3 Nordeste 14 Nordeste 0 -- -- 82
2021-02-18 23:00:00 11.5 5 Nordeste 17 Norte 0 -- -- 78
2021-02-18 22:00:00 12.4 12 Norte 15 Norte 0 -- -- 73
2021-02-18 21:00:00 12.4 10 Nordeste 16 Norte 0 -- -- 67
2021-02-18 20:00:00 13.6 6 Nordeste 14 Norte 0 -- -- 66
2021-02-18 19:00:00 15.7 0 Calma 10 Sudoeste 0 -- -- 73
2021-02-18 18:00:00 18.2 6 Sudoeste 12 Sudoeste 0 -- -- 69
2021-02-18 17:00:00 18.7 5 Sudoeste 16 Sudoeste 0 -- -- 66
2021-02-18 16:00:00 17.8 9 Sudoeste 18 Sudoeste 0 -- -- 67
2021-02-18 15:00:00 17.4 5 Sudoeste 16 Sudoeste 0 -- -- 70
2021-02-18 14:00:00 16.3 6 Sudoeste 15 Sudoeste 0 -- -- 72
2021-02-18 13:00:00 15.2 8 Sudoeste 14 Sudoeste 0 -- -- 72
2021-02-18 12:00:00 13.7 5 Sudoeste 11 Sudoeste 0 -- -- 78
2021-02-18 11:00:00 12.3 3 Norte 7 Sudoeste 0 -- -- 68
2021-02-18 10:00:00 10.2 0 Calma 13 Nordeste 0 -- -- 77
2021-02-18 09:00:00 7.6 11 Nordeste 15 Nordeste 0 -- -- 77
2021-02-18 08:00:00 7.7 13 Norte 18 Nordeste 0 -- -- 77
2021-02-18 07:00:00 9.3 6 Nordeste 12 Nordeste 0 -- -- 69
2021-02-18 06:00:00 9.2 2 Nordeste 17 Nordeste 0.2 -- -- 81
2021-02-18 05:00:00 8 8 Nordeste 15 Nordeste 0 -- -- 94
2021-02-18 04:00:00 8.3 9 Nordeste 14 Nordeste 0 -- -- 94
2021-02-18 03:00:00 9.4 8 Nordeste 13 Norte 0 -- -- 94
2021-02-18 02:00:00 10.1 5 Nordeste 9 Nordeste 0 -- -- 94
2021-02-18 01:00:00 10.4 3 Norte 10 Nordeste 0 -- -- 94
2021-02-18 00:00:00 11.1 4 Norte 6 Norte 0 -- -- 91
2021-02-17 23:00:00 11.4 2 Nordeste 7 Nordeste 0 -- -- 90
2021-02-17 22:00:00 12.2 0 Calma 13 Nordeste 0 -- -- 88
2021-02-17 21:00:00 12.2 4 Nordeste 11 Nordeste 0 -- -- 88
2021-02-17 20:00:00 11.7 8 Nordeste 10 Nordeste 0 -- -- 90
2021-02-17 19:00:00 13.3 0 Calma 6 Sudoeste 0 -- -- 84
2021-02-17 18:00:00 15.5 4 Sudoeste 12 Sudoeste 0 -- -- 78
2021-02-17 17:00:00 16.1 7 Sudoeste 13 Sudoeste 0 -- -- 77
2021-02-17 16:00:00 16.2 6 Sudoeste 15 Sudoeste 0 -- -- 76
2021-02-17 15:00:00 15.6 6 Sudoeste 17 Sudoeste 0 -- -- 75
2021-02-17 14:00:00 14.7 8 Sudoeste 13 Sudoeste 0 -- -- 79
2021-02-17 13:00:00 13.5 6 Sudoeste 12 Sudoeste 0 -- -- 82
2021-02-17 12:00:00 11.7 3 Sudoeste 7 Sudoeste 0 -- -- 89
2021-02-17 11:00:00 10.7 4 Sudoeste 7 Sudoeste 0 -- -- 87
2021-02-17 10:00:00 9.5 0 Calma 16 Nordeste 0 -- -- 88
2021-02-17 09:00:00 6.7 15 Nordeste 18 Nordeste 0 -- -- 88
2021-02-17 08:00:00 6.9 12 Nordeste 14 Nordeste 0 -- -- 90
2021-02-17 07:00:00 7.1 6 Nordeste 15 Nordeste 0 -- -- 93
2021-02-17 06:00:00 7.4 9 Nordeste 13 Nordeste 0 -- -- 94
2021-02-17 05:00:00 8.6 0 Calma 8 Nordeste 0 -- -- 93
2021-02-17 04:00:00 8.9 0 Calma 3 Sudoeste 0 -- -- 93
2021-02-17 03:00:00 7.9 4 Nordeste 15 Nordeste 0 -- -- 95
2021-02-17 02:00:00 8.7 9 Nordeste 11 Nordeste 0 -- -- 93
2021-02-17 01:00:00 9 3 Norte 8 Nordeste 0 -- -- 93
2021-02-17 00:00:00 9 0 Calma 12 Nordeste 0 -- -- 92
2021-02-16 23:00:00 9.4 11 Nordeste 13 Nordeste 0 -- -- 92
2021-02-16 22:00:00 9.7 2 Este 6 Este 0 -- -- 91
2021-02-16 21:00:00 9.1 0 Calma 5 Nordeste 0 -- -- 92
2021-02-16 20:00:00 9.7 6 Nordeste 12 Norte 0 -- -- 90
2021-02-16 19:00:00 11.3 6 Norte 11 Norte 0 -- -- 83
2021-02-16 18:00:00 13.6 6 Sudoeste 16 Oeste 0 -- -- 75
2021-02-16 17:00:00 14.1 10 Sudoeste 21 Sudoeste 0 -- -- 73
2021-02-16 16:00:00 14.4 11 Sudoeste 22 Sudoeste 0 -- -- 72
2021-02-16 15:00:00 14.8 11 Sudoeste 21 Sudoeste 0 -- -- 70
2021-02-16 14:00:00 14.7 9 Sudoeste 18 Sudoeste 0 -- -- 69
2021-02-16 13:00:00 13.8 7 Sudoeste 18 Sudoeste 0 -- -- 69
2021-02-16 12:00:00 12.5 4 Sur 17 Sudoeste 0 -- -- 72
2021-02-16 11:00:00 11.7 4 Sudeste 12 Sudoeste 0 -- -- 74
2021-02-16 10:00:00 9.8 3 Norte 15 Este 0 -- -- 80
2021-02-16 09:00:00 8.2 3 Sur 8 Nordeste 0 -- -- 83
2021-02-16 08:00:00 8.1 6 Nordeste 10 Este 0 -- -- 82
2021-02-16 07:00:00 8.2 3 Este 10 Este 0 -- -- 80
2021-02-16 06:00:00 8 0 Calma 12 Sudeste 0 -- -- 81
2021-02-16 05:00:00 8.3 3 Este 16 Este 0 -- -- 79
2021-02-16 04:00:00 8.3 4 Oeste 21 Este 0 -- -- 74
2021-02-16 03:00:00 8.6 4 Oeste 18 Oeste 0 -- -- 67
2021-02-16 02:00:00 8.7 3 Oeste 15 Sudeste 0 -- -- 64
2021-02-16 01:00:00 9.1 5 Oeste 15 Sudoeste 0 -- -- 62
2021-02-16 00:00:00 9.1 6 Oeste 21 Sur 0 -- -- 65
2021-02-15 23:00:00 9.5 5 Oeste 19 Este 0 -- -- 64
2021-02-15 22:00:00 9.6 7 Sudoeste 17 Sur 0 -- -- 60
2021-02-15 21:00:00 9.8 5 Oeste 20 Nordeste 0 -- -- 60
2021-02-15 20:00:00 9.8 6 Oeste 17 Oeste 0 -- -- 63
2021-02-15 19:00:00 11.2 5 Oeste 14 Sudoeste 0 -- -- 64
2021-02-15 18:00:00 13.9 6 Oeste 18 Oeste 0 -- -- 58
2021-02-15 17:00:00 14.5 5 Sudoeste 28 Norte 0 -- -- 58
2021-02-15 16:00:00 15.3 6 Oeste 22 Sudeste 0 -- -- 60
2021-02-15 15:00:00 15.3 6 Sudoeste 28 Sudeste 0 -- -- 56
2021-02-15 14:00:00 14.9 9 Sudoeste 21 Este 0 -- -- 57
2021-02-15 13:00:00 14.6 7 Sudoeste 18 Sudeste 0 -- -- 59
2021-02-15 12:00:00 13.5 6 Oeste 25 Este 0 -- -- 64
2021-02-15 11:00:00 12.2 8 Oeste 26 Noroeste 0 -- -- 66
2021-02-15 10:00:00 10.3 9 Sudoeste 23 Sudoeste 0 -- -- 76
2021-02-15 09:00:00 9.1 7 Oeste 21 Oeste 0 -- -- 78
2021-02-15 08:00:00 8.7 5 Oeste 19 Oeste 0 -- -- 79
2021-02-15 07:00:00 8.9 7 Sudoeste 25 Noroeste 0 -- -- 80
2021-02-15 06:00:00 9 6 Oeste 22 Sudoeste 0 -- -- 80
2021-02-15 05:00:00 9 8 Sudoeste 23 Norte 0 -- -- 80
2021-02-15 04:00:00 9.1 6 Oeste 22 Sur 0 -- -- 79
2021-02-15 03:00:00 9.6 6 Sudoeste 18 Este 0 -- -- 73
2021-02-15 02:00:00 10.2 5 Noroeste 19 Sudeste 0 -- -- 61
2021-02-15 01:00:00 10.4 4 Sudeste 18 Este 0 -- -- 58
2021-02-15 00:00:00 10.3 6 Sudoeste 21 Norte 0 -- -- 58
2021-02-14 23:00:00 10.5 7 Oeste 24 Oeste 0 -- -- 60
2021-02-14 22:00:00 10.7 5 Oeste 18 Noroeste 0 -- -- 60
2021-02-14 21:00:00 11 6 Sudoeste 19 Oeste 0 -- -- 60
2021-02-14 20:00:00 11.7 5 Sudoeste 18 Oeste 0 -- -- 55
2021-02-14 19:00:00 12.8 6 Sudoeste 23 Sudeste 0 -- -- 51
2021-02-14 18:00:00 15.3 7 Oeste 20 Sur 0 -- -- 46
2021-02-14 17:00:00 16.5 7 Sudoeste 24 Sudeste 0 -- -- 45
2021-02-14 16:00:00 17.4 6 Sudoeste 21 Sudeste 0 -- -- 45
2021-02-14 15:00:00 17.7 10 Sudoeste 22 Sur 0 -- -- 42
2021-02-14 14:00:00 17.5 7 Sudoeste 23 Sur 0 -- -- 43
2021-02-14 13:00:00 17.3 7 Sudoeste 21 Sudoeste 0 -- -- 41
2021-02-14 12:00:00 16.4 5 Sur 22 Sudeste 0 -- -- 46
2021-02-14 11:00:00 15.2 5 Sudoeste 11 Sudoeste 0 -- -- 48
2021-02-14 10:00:00 11.1 3 Sudoeste 9 Nordeste 0 -- -- 47
2021-02-14 09:00:00 8.8 0 Calma 14 Nordeste 0 -- -- 44
2021-02-14 08:00:00 9.1 3 Este 13 Norte 0 -- -- 44
2021-02-14 07:00:00 7.9 11 Nordeste 15 Nordeste 0 -- -- 51
2021-02-14 06:00:00 9.4 9 Nordeste 13 Nordeste 0 -- -- 42
2021-02-14 05:00:00 11 5 Nordeste 16 Nordeste 0 -- -- 34
2021-02-14 04:00:00 10.2 13 Nordeste 18 Nordeste 0 -- -- 43
2021-02-14 03:00:00 9.5 5 Nordeste 21 Norte 0 -- -- 51
2021-02-14 02:00:00 10.2 12 Norte 24 Norte 0 -- -- 49
2021-02-14 01:00:00 10.4 13 Norte 24 Norte 0 -- -- 45
2021-02-14 00:00:00 10.2 10 Norte 21 Norte 0 -- -- 45
2021-02-13 23:00:00 9.6 13 Norte 18 Norte 0 -- -- 56
2021-02-13 22:00:00 11.2 10 Nordeste 20 Norte 0 -- -- 55
2021-02-13 21:00:00 12.5 6 Norte 17 Norte 0 -- -- 53
2021-02-13 20:00:00 13.7 6 Norte 11 Norte 0 -- -- 49
2021-02-13 19:00:00 15.8 4 Norte 11 Norte 0 -- -- 45
2021-02-13 18:00:00 18.4 4 Norte 11 Sudoeste 0 -- -- 45
2021-02-13 17:00:00 18.5 4 Sudoeste 9 Sudoeste 0 -- -- 51
2021-02-13 16:00:00 17.9 7 Sudoeste 13 Sur 0 -- -- 50
2021-02-13 15:00:00 18.5 9 Sudoeste 17 Sudoeste 0 -- -- 47
2021-02-13 14:00:00 18 6 Sudoeste 14 Sudoeste 0 -- -- 50
2021-02-13 13:00:00 18.3 2 Sur 10 Sudoeste 0 -- -- 39
2021-02-13 08:00:00 -- -- -- -- -- -- -- -- --
2021-02-13 07:00:00 -- -- -- -- -- -- -- -- --
2021-02-13 06:00:00 -- -- -- -- -- -- -- -- --
2021-02-13 05:00:00 8.3 11 Norte 29 Norte 0 -- -- 81
2021-02-13 04:00:00 8.3 12 Norte 30 Norte 0 -- -- 83
2021-02-13 03:00:00 8 11 Norte 22 Noroeste 0 -- -- 85
2021-02-13 02:00:00 9 7 Nordeste 16 Este 0 -- -- 80
2021-02-13 01:00:00 9.6 5 Nordeste 20 Norte 0 -- -- 77
2021-02-13 00:00:00 10.1 6 Nordeste 28 Noroeste 0 -- -- 73
2021-02-12 23:00:00 10.7 6 Norte 19 Noroeste 0 -- -- 71
2021-02-12 22:00:00 11.3 5 Nordeste 20 Nordeste 0 -- -- 65
2021-02-12 21:00:00 11.2 5 Sur 20 Sur 0 -- -- 64
2021-02-12 20:00:00 11.4 4 Nordeste 12 Norte 0 -- -- 65
2021-02-12 19:00:00 12.4 4 Norte 19 Nordeste 0 -- -- 72
2021-02-12 18:00:00 14.5 8 Nordeste 24 Noroeste 0 -- -- 65
2021-02-12 17:00:00 15.3 8 Norte 31 Norte 0 -- -- 61
2021-02-12 16:00:00 15.2 10 Noroeste 30 Noroeste 0 -- -- 58
2021-02-12 15:00:00 15.4 10 Noroeste 35 Norte 0 -- -- 55
2021-02-12 14:00:00 15.5 10 Sur 35 Noroeste 0 -- -- 64
2021-02-12 13:00:00 14.6 11 Noroeste 34 Norte 0 -- -- 68
2021-02-12 12:00:00 14.4 8 Noroeste 30 Norte 0 -- -- 76
2021-02-12 11:00:00 13 8 Norte 27 Nordeste 0 -- -- 90
2021-02-12 10:00:00 12 7 Oeste 28 Nordeste 0 -- -- 93
2021-02-12 09:00:00 11.4 6 Noroeste 26 Nordeste 0 -- -- 95
2021-02-12 08:00:00 11.2 6 Nordeste 24 Norte 0.2 -- -- 94
2021-02-12 07:00:00 11.1 4 Norte 21 Norte 0.2 -- -- 94
2021-02-12 06:00:00 11.1 5 Nordeste 22 Norte 0 -- -- 94
2021-02-12 05:00:00 11.2 8 Norte 27 Norte 0 -- -- 93
2021-02-12 04:00:00 11.1 6 Norte 27 Nordeste 0 -- -- 92
2021-02-12 03:00:00 11.2 9 Norte 41 Nordeste 0 -- -- 91
2021-02-12 02:00:00 11.3 19 Norte 37 Norte 0 -- -- 87
2021-02-12 01:00:00 10.9 20 Norte 32 Norte 0 -- -- 91
2021-02-12 00:00:00 10.6 8 Norte 20 Norte 0 -- -- 93
2021-02-11 23:00:00 10.5 9 Norte 15 Norte 0 -- -- 94
2021-02-11 22:00:00 11.3 10 Norte 20 Norte 0 -- -- 91
2021-02-11 21:00:00 12.1 11 Norte 22 Norte 0 -- -- 89
2021-02-11 20:00:00 12.5 9 Norte 24 Norte 0 -- -- 87
2021-02-11 19:00:00 13.7 12 Norte 22 Norte 0 -- -- 79
2021-02-11 18:00:00 14.9 6 Norte 19 Norte 0 -- -- 78
2021-02-11 17:00:00 15.6 8 Norte 21 Nordeste 0 -- -- 77
2021-02-11 16:00:00 15.7 12 Norte 20 Norte 0 -- -- 79
2021-02-11 15:00:00 15.9 11 Norte 19 Norte 0 -- -- 78
2021-02-11 14:00:00 16.5 7 Norte 15 Norte 0 -- -- 80
2021-02-11 13:00:00 15.7 6 Norte 18 Norte 0 -- -- 84
2021-02-11 12:00:00 14 8 Nordeste 21 Norte 0 -- -- 88
2021-02-11 11:00:00 12.7 8 Norte 18 Norte 0 -- -- 98
2021-02-11 10:00:00 10.7 8 Nordeste 19 Norte 0 -- -- 98
2021-02-11 09:00:00 10.6 9 Norte 17 Nordeste 0 -- -- 97
2021-02-11 08:00:00 11 6 Norte 17 Norte 0 -- -- 97
2021-02-11 07:00:00 11.1 4 Nordeste 13 Norte 0 -- -- 97
2021-02-11 06:00:00 11.2 4 Nordeste 10 Norte 0 -- -- 97
2021-02-11 05:00:00 11.2 2 Sudoeste 14 Nordeste 0 -- -- 96
2021-02-11 04:00:00 11.3 2 Noroeste 14 Noroeste 0 -- -- 95
2021-02-11 03:00:00 11.3 3 Nordeste 18 Norte 0 -- -- 95
2021-02-11 02:00:00 11.4 5 Oeste 14 Noroeste 0 -- -- 95
2021-02-11 01:00:00 11.4 2 Oeste 12 Noroeste 0 -- -- 94
2021-02-11 00:00:00 11.4 4 Oeste 12 Oeste 0 -- -- 94
2021-02-10 23:00:00 11.4 3 Nordeste 21 Norte 0 -- -- 94
2021-02-10 22:00:00 11.6 7 Oeste 32 Noroeste 0 -- -- 94
2021-02-10 21:00:00 11.7 13 Noroeste 29 Noroeste 0 -- -- 95
2021-02-10 20:00:00 11.9 8 Oeste 27 Noroeste 0.4 -- -- 95
2021-02-10 19:00:00 12 8 Noroeste 31 Noroeste 1.4 -- -- 95
2021-02-10 18:00:00 12 13 Sudoeste 39 Sur 0.4 -- -- 96
2021-02-10 17:00:00 11.9 18 Sudoeste 56 Sudoeste 0 -- -- 95
2021-02-10 16:00:00 12 12 Sudoeste 40 Sudoeste 1 -- -- 96
2021-02-10 15:00:00 12.1 18 Sudoeste 41 Sudoeste 2.6 -- -- 96
2021-02-10 14:00:00 12.2 16 Sudoeste 34 Sudoeste 3.6 -- -- 95
2021-02-10 13:00:00 12 10 Sudoeste 46 Sudoeste 3.2 -- -- 96
2021-02-10 12:00:00 11.8 12 Sudoeste 27 Oeste 1.8 -- -- 96
2021-02-10 11:00:00 11.3 16 Oeste 50 Sudoeste 0.8 -- -- 94
2021-02-10 10:00:00 11.2 12 Oeste 55 Sudoeste 0.2 -- -- 92
2021-02-10 09:00:00 11.4 10 Sudoeste 47 Sudoeste 0.4 -- -- 93
2021-02-10 08:00:00 11.3 13 Sudoeste 53 Sur 0.2 -- -- 93
2021-02-10 07:00:00 11.3 10 Oeste 40 Sudoeste 0.4 -- -- 93
2021-02-10 06:00:00 11 14 Oeste 45 Sudoeste 0.8 -- -- 93
2021-02-10 05:00:00 10.8 8 Sudoeste 57 Sudoeste 0.4 -- -- 93
2021-02-10 04:00:00 10.2 10 Noroeste 28 Norte 0 -- -- 90
2021-02-10 03:00:00 10.4 9 Noroeste 56 Noroeste 0.2 -- -- 86
2021-02-10 02:00:00 10.9 8 Oeste 42 Sudoeste 0.4 -- -- 93
2021-02-10 01:00:00 10.6 12 Sudoeste 36 Noroeste 0 -- -- 93
2021-02-10 00:00:00 10.8 7 Oeste 63 Sudoeste 0 -- -- 92
2021-02-09 23:00:00 11 26 Sudoeste 63 Sudoeste 1.6 -- -- 96
2021-02-09 22:00:00 10.6 22 Sudoeste 54 Sudoeste 0.2 -- -- 95
2021-02-09 21:00:00 10.7 23 Sudoeste 50 Sur 0.2 -- -- 94
2021-02-09 20:00:00 10.7 17 Sudoeste 66 Sudoeste 0.4 -- -- 96
2021-02-09 19:00:00 11 27 Sudoeste 64 Sudoeste 1.6 -- -- 96
2021-02-09 18:00:00 10.7 29 Sudoeste 62 Sudoeste 1 -- -- 94
2021-02-09 17:00:00 10.7 29 Sudoeste 58 Sudoeste 1.6 -- -- 94
2021-02-09 16:00:00 11.6 31 Sudoeste 61 Sudoeste 0 -- -- 90
2021-02-09 15:00:00 11.3 30 Sudoeste 57 Sudoeste 0.8 -- -- 92
2021-02-09 14:00:00 11 23 Sudoeste 56 Sudoeste 1 -- -- 95
2021-02-09 13:00:00 11 23 Sudoeste 55 Sudoeste 0.4 -- -- 94
2021-02-09 12:00:00 11.2 28 Sudoeste 51 Sudoeste 0.2 -- -- 90
2021-02-09 11:00:00 10.6 14 Sudoeste 43 Oeste 0 -- -- 90
2021-02-09 10:00:00 9.7 15 Sudoeste 35 Oeste 0 -- -- 90
2021-02-09 09:00:00 9.3 19 Sudoeste 42 Sudoeste 0 -- -- 92
2021-02-09 08:00:00 9.4 21 Sudoeste 46 Oeste 0.2 -- -- 92
2021-02-09 07:00:00 9.2 17 Sudoeste 36 Sur 0.6 -- -- 94
2021-02-09 06:00:00 9.3 7 Norte 21 Norte 0 -- -- 82
2021-02-09 05:00:00 9 7 Nordeste 35 Norte 0 -- -- 81
2021-02-09 04:00:00 8.9 6 Norte 22 Sudoeste 0 -- -- 83
2021-02-09 03:00:00 9.1 8 Sudoeste 25 Sudoeste 0 -- -- 86
2021-02-09 02:00:00 9.5 3 Sur 20 Nordeste 0 -- -- 85
2021-02-09 01:00:00 9.6 9 Noroeste 24 Norte 0 -- -- 85
2021-02-09 00:00:00 9.6 5 Noroeste 22 Noroeste 0 -- -- 84
2021-02-08 23:00:00 9.8 8 Norte 34 Norte 0 -- -- 80
2021-02-08 22:00:00 10.1 16 Oeste 36 Oeste 0 -- -- 81
2021-02-08 21:00:00 9.9 7 Noroeste 28 Noroeste 0 -- -- 85
2021-02-08 20:00:00 10 11 Oeste 28 Sudoeste 0 -- -- 82
2021-02-08 19:00:00 10.1 6 Oeste 24 Norte 0 -- -- 80
2021-02-08 18:00:00 11.2 8 Noroeste 32 Noroeste 0 -- -- 72
2021-02-08 17:00:00 12.4 12 Oeste 49 Nordeste 0 -- -- 64
2021-02-08 16:00:00 12.3 18 Noroeste 45 Norte 0 -- -- 66
2021-02-08 15:00:00 12.1 14 Noroeste 48 Norte 0 -- -- 62
2021-02-08 14:00:00 12 13 Oeste 37 Norte 0 -- -- 69
2021-02-08 13:00:00 11.1 10 Noroeste 37 Nordeste 0 -- -- 78
2021-02-08 12:00:00 10 12 Norte 37 Noroeste 0 -- -- 81
2021-02-08 11:00:00 8.9 11 Noroeste 26 Noroeste 0 -- -- 93
2021-02-08 10:00:00 8.3 11 Norte 30 Nordeste 0.8 -- -- 95
2021-02-08 09:00:00 9 14 Oeste 39 Sudoeste 0.4 -- -- 94
2021-02-08 08:00:00 10.4 23 Sudoeste 48 Sudoeste 5.8 -- -- 98
2021-02-08 07:00:00 10.1 17 Sudoeste 42 Sur 5.8 -- -- 98
2021-02-08 06:00:00 9.7 17 Sudoeste 44 Sudoeste 2.8 -- -- 98
2021-02-08 05:00:00 9.3 23 Sudoeste 43 Sur 1.6 -- -- 98
2021-02-08 04:00:00 9 27 Sudoeste 48 Sudoeste 0.4 -- -- 98
2021-02-08 03:00:00 9 21 Sudoeste 40 Sur 1.8 -- -- 97
2021-02-08 02:00:00 8.7 17 Sudoeste 37 Sudoeste 1 -- -- 97
2021-02-08 01:00:00 8.3 13 Sudoeste 44 Sur 1 -- -- 96
2021-02-08 00:00:00 8 19 Sudoeste 40 Sudoeste 0 -- -- 95
2021-02-07 23:00:00 8.1 13 Oeste 37 Sudoeste 0 -- -- 91
2021-02-07 22:00:00 8.1 15 Noroeste 37 Oeste 0 -- -- 89
2021-02-07 21:00:00 8 10 Oeste 38 Noroeste 0 -- -- 87
2021-02-07 20:00:00 7.6 13 Oeste 31 Oeste 0 -- -- 85
2021-02-07 19:00:00 7.5 6 Norte 32 Norte 0 -- -- 82
2021-02-07 18:00:00 7.8 8 Oeste 32 Norte 0 -- -- 77
2021-02-07 17:00:00 7.5 7 Norte 25 Noroeste 0 -- -- 76
2021-02-07 16:00:00 7.7 9 Noroeste 35 Norte 0 -- -- 75
2021-02-07 15:00:00 8.1 9 Oeste 30 Norte 0.2 -- -- 79
2021-02-07 14:00:00 8 8 Oeste 36 Noroeste 0 -- -- 82
2021-02-07 13:00:00 9 7 Oeste 27 Nordeste 0 -- -- 81
2021-02-07 12:00:00 7.4 10 Noroeste 32 Noroeste 0 -- -- 92
2021-02-07 11:00:00 7.1 9 Noroeste 25 Norte 0 -- -- 96
2021-02-07 10:00:00 6.9 8 Noroeste 22 Oeste 0 -- -- 96
2021-02-07 09:00:00 6.7 8 Oeste 24 Norte 0 -- -- 96
2021-02-07 08:00:00 6.8 6 Noroeste 23 Nordeste 0 -- -- 95
2021-02-07 07:00:00 6.7 5 Oeste 18 Oeste 0.2 -- -- 94
2021-02-07 06:00:00 6.8 4 Noroeste 18 Nordeste 0 -- -- 94
2021-02-07 05:00:00 6.7 5 Oeste 15 Noroeste 0 -- -- 95
2021-02-07 04:00:00 6.8 3 Oeste 15 Noroeste 0 -- -- 94
2021-02-07 03:00:00 6.7 0 Calma 15 Norte 0.4 -- -- 94
2021-02-07 02:00:00 6.8 3 Sudoeste 23 Sudoeste 1.2 -- -- 94
2021-02-07 01:00:00 7 7 Sudoeste 38 Sudoeste 0 -- -- 88
2021-02-07 00:00:00 7.5 6 Noroeste 22 Noroeste 0.2 -- -- 87
2021-02-06 23:00:00 7.7 8 Oeste 24 Oeste 0 -- -- 86
2021-02-06 22:00:00 7.7 4 Noroeste 25 Noroeste 0 -- -- 88
2021-02-06 21:00:00 8.2 6 Oeste 24 Norte 0.2 -- -- 87
2021-02-06 20:00:00 8.4 8 Noroeste 28 Sur 0 -- -- 87
2021-02-06 19:00:00 8.6 6 Sudoeste 28 Norte 0 -- -- 88
2021-02-06 18:00:00 9 11 Oeste 33 Noroeste 0 -- -- 83
2021-02-06 17:00:00 9.8 6 Oeste 38 Sudoeste 0 -- -- 85
2021-02-06 16:00:00 9.7 12 Sudoeste 32 Sur 0.2 -- -- 91
2021-02-06 15:00:00 8.7 14 Sudoeste 27 Sudoeste 1.2 -- -- 93
2021-02-06 14:00:00 9 11 Sudoeste 30 Sudoeste 0.4 -- -- 92
2021-02-06 13:00:00 9.2 12 Sudoeste 30 Sudoeste 0.2 -- -- 92
2021-02-06 12:00:00 9.7 9 Sudoeste 27 Sur 0 -- -- 91
2021-02-06 11:00:00 9.2 4 Sudoeste 16 Sur 0 -- -- 92
2021-02-06 10:00:00 8.1 3 Sur 15 Noroeste 0 -- -- 93
2021-02-06 09:00:00 7.6 5 Sudoeste 21 Sur 0 -- -- 93
2021-02-06 08:00:00 7.6 4 Sudoeste 10 Este 0 -- -- 93
2021-02-06 07:00:00 7.4 0 Calma 12 Norte 0 -- -- 95
2021-02-06 06:00:00 7.6 5 Oeste 22 Sur 0 -- -- 97
2021-02-06 05:00:00 7.8 6 Sudoeste 21 Sudoeste 0 -- -- 97
2021-02-06 04:00:00 8 10 Sudoeste 26 Sudoeste 0.2 -- -- 97
2021-02-06 03:00:00 8.3 10 Sudoeste 38 Sudoeste 0.4 -- -- 97
2021-02-06 02:00:00 8.3 9 Sudoeste 22 Sudoeste 0.4 -- -- 97
2021-02-06 01:00:00 8.2 11 Sudoeste 44 Sur 3.8 -- -- 97
2021-02-06 00:00:00 8.1 12 Sudoeste 27 Sur 3.2 -- -- 96
2021-02-05 23:00:00 8.3 17 Sudoeste 29 Sudoeste 0.8 -- -- 94
2021-02-05 22:00:00 8.7 9 Sudoeste 21 Sur 0.2 -- -- 91
2021-02-05 21:00:00 8.9 7 Sudoeste 22 Sudoeste 0 -- -- 88
2021-02-05 20:00:00 9.2 10 Sudoeste 21 Sudoeste 0 -- -- 86
2021-02-05 19:00:00 9.6 12 Sudoeste 28 Sudoeste 0 -- -- 82
2021-02-05 18:00:00 10.2 17 Sudoeste 35 Sudoeste 0 -- -- 83
2021-02-05 17:00:00 10.6 4 Sudoeste 15 Sur 0 -- -- 81
2021-02-05 16:00:00 11.1 8 Sudoeste 32 Sudoeste 0 -- -- 80
2021-02-05 15:00:00 12.4 11 Sudoeste 27 Sudoeste 0 -- -- 71
2021-02-05 14:00:00 12.4 6 Sudoeste 22 Sudoeste 0 -- -- 79
2021-02-05 13:00:00 13.6 8 Sudoeste 15 Sudoeste 0 -- -- 79
2021-02-05 12:00:00 13.7 4 Sudoeste 17 Nordeste 0 -- -- 84
2021-02-05 11:00:00 10 9 Norte 14 Norte 0 -- -- 94
2021-02-05 10:00:00 9.9 5 Nordeste 11 Norte 0 -- -- 93
2021-02-05 09:00:00 9.9 4 Sudoeste 8 Sudoeste 0 -- -- 92
2021-02-05 08:00:00 8.9 2 Nordeste 10 Norte 0 -- -- 93
2021-02-05 07:00:00 9.3 0 Calma 13 Sudoeste 0 -- -- 89
2021-02-05 06:00:00 9.6 3 Sudoeste 8 Sudoeste 0 -- -- 85
2021-02-05 05:00:00 10.3 3 Sur 17 Norte 0 -- -- 80
2021-02-05 04:00:00 11.4 5 Oeste 22 Sudoeste 0 -- -- 74
2021-02-05 03:00:00 11.1 3 Noroeste 12 Sur 0 -- -- 73
2021-02-05 02:00:00 12.5 4 Sur 8 Sur 0 -- -- 67
2021-02-05 01:00:00 12.3 2 Noroeste 9 Nordeste 0 -- -- 66
2021-02-05 00:00:00 12.2 4 Nordeste 13 Nordeste 0 -- -- 74
2021-02-04 23:00:00 11.1 5 Norte 12 Norte 0 -- -- 88
2021-02-04 22:00:00 11.1 2 Norte 12 Norte 0 -- -- 91
2021-02-04 21:00:00 11.7 4 Norte 8 Norte 0 -- -- 89
2021-02-04 20:00:00 11.8 0 Calma 8 Nordeste 0 -- -- 86
2021-02-04 19:00:00 12.6 4 Nordeste 7 Nordeste 0 -- -- 88
2021-02-04 18:00:00 14 3 Sudoeste 13 Sudoeste 0 -- -- 82
2021-02-04 17:00:00 13.7 5 Sudoeste 13 Sudoeste 0 -- -- 85
2021-02-04 16:00:00 13.7 5 Sudoeste 16 Sudoeste 0 -- -- 86
2021-02-04 15:00:00 13.9 6 Sudoeste 17 Sudoeste 0 -- -- 85
2021-02-04 14:00:00 13.6 9 Sudoeste 18 Sudoeste 0 -- -- 85
2021-02-04 13:00:00 12.3 6 Sudoeste 18 Sudoeste 0 -- -- 87
2021-02-04 12:00:00 11.8 9 Sudoeste 16 Sudoeste 0 -- -- 88
2021-02-04 11:00:00 11 6 Sudoeste 10 Sudoeste 0 -- -- 89
2021-02-04 10:00:00 9.4 5 Sudoeste 8 Sur 0 -- -- 90
2021-02-04 09:00:00 9.2 3 Sur 5 Sur 0 -- -- 86
2021-02-04 08:00:00 10 3 Sudeste 11 Sur 0 -- -- 83
2021-02-04 07:00:00 8.8 3 Nordeste 15 Nordeste 0 -- -- 90
2021-02-04 06:00:00 7.9 7 Norte 19 Nordeste 0 -- -- 96
2021-02-04 05:00:00 7.5 7 Norte 14 Norte 0 -- -- 95
2021-02-04 04:00:00 8.2 5 Norte 11 Norte 0 -- -- 96
2021-02-04 03:00:00 8.3 5 Nordeste 9 Norte 0 -- -- 96
2021-02-04 02:00:00 9 5 Norte 10 Norte 0 -- -- 94
2021-02-04 01:00:00 9.6 4 Norte 13 Norte 0 -- -- 92
2021-02-04 00:00:00 9.8 2 Sur 16 Nordeste 0 -- -- 92